sat.trackr.live / text

‹ back to catalog

STARLINK-33729

NORAD 63647 · 2025-083P

PAYLOAD ACTIVE UNKNOWN

§ Identity

Operator
Country
US
Launch date
2025-04-25
Launch site
AFETR
Launch vehicle
Mass (kg)
RCS (m²)

Purposes: comms

External: N2YO · Heavens-Above · Gunter

§ Orbital elements

Epoch: 2026-05-25T03:07:42.136320Z

Period
94.27 min
Inclination
43.0008°
Eccentricity
0.0002136
Mean motion
15.27590794 rev/d
Perigee alt
481.6 km
Apogee alt
484.5 km
Semi-major
6,861.2 km
B*
6.6986e-4
RAAN
293.8442°
Arg perigee
267.7060°
Mean anomaly
92.3547°
Rev number
6,175

§ Raw data

STARLINK-337291 63647U 25083P   26145.13034880  .00018223  00000+0  66986-3 0  99922 63647  43.0008 293.8442 0002136 267.7060  92.3547 15.27590794 61753

JSON: /api/v1/satellites/63647 · /tle

For live sub-satellite position, see the globe view (requires WebGL).

§ Visibility from observer

Set your observer location to see the next 7 days of passes ≥ 10°. The values pass through the URL so the page stays shareable.

No JS? Fill the form by hand. The geolocation button needs JavaScript.